Simultaneous Nadir Overpasses (SNOs) Predictions

Prediction of SNOs between GOES-16 and NOAA-19 Satellite Orbit:

Table of predicted SNOs for the next 14.0 days since TLE Epoch: 5/25/2019
Index Date Time (GOES-16) GOES-16 Lat,Lon NOAA-19 Lat,Lon Distance(km) Time Diff (sec)
1 05/26/2019 10:02:03 -0.02, -75.20 0.34, -76.84 186.90 80
2 05/27/2019 09:47:45 -0.02, -75.20 -0.30, -74.00 137.61 80
3 05/28/2019 09:36:08 -0.01, -75.21 -0.94, -71.16 462.26 80
4 05/29/2019 22:09:04 0.02, -75.21 -0.87, -79.04 437.69 80
5 05/30/2019 21:57:27 0.02, -75.22 -0.22, -76.20 112.79 80
6 05/31/2019 21:48:29 0.02, -75.23 0.43, -73.36 212.23 80
7 06/03/2019 10:09:30 -0.03, -75.27 0.68, -78.34 350.94 80
8 06/04/2019 09:57:53 -0.03, -75.28 0.03, -75.50 25.96 80
9 06/05/2019 09:43:36 -0.03, -75.29 -0.67, -72.68 299.16 80
10 06/07/2019 22:04:53 0.04, -75.31 -0.53, -77.71 274.53 80




NCC Satellite Simultaneous Nadir Overpasses (SNOs) Prediction Service
